Regional Weather Roundup
Issued by NWS Binghamton, NY

Home | Current Version | Previous Version | Text Only | Print | Product List | Glossary On
Versions: 1 2 3 4 5 6 7 8 9 10 11 12 13 14 15 16 17 18 19 20 21 22 23 24 25 26 27 28 29 30 31 32 33 34 35 36 37 38 39 40 41 42 43 44 45 46 47 48 49 50
173
ASUS41 KBGM 240510
RWRBGM

REGIONAL WEATHER ROUNDUP
NATIONAL WEATHER SERVICE BINGHAMTON NY
100 AM EDT TUE APR 24 2018

Note: "fair" indicates few or no clouds below 12,000 feet with no
significant weather and/or obstructions to visibility.

* = Station(s) that does not report precipitation, such as rain,
snow, etc, also no thunder or fog.

NYZ009-015>018-022>025-036-037-044>046-055>057-062-240600
...Central New York...

CITY           SKY/WX    TMP DP  RH WIND       PRES   REMARKS
Binghamton     FAIR      51  26  37 S8        30.31F
Cortland       FAIR      50  32  50 S5        30.31S
Dansville      FAIR      51  36  56 SE8       30.25S
Elmira         FAIR      57  33  40 S10       30.29S
Ithaca         FAIR      53  32  44 SE10      30.30F
Monticello     FAIR      44  24  45 SE7       30.39S
Penn Yan       FAIR      55  33  43 S8        30.27F
Rome           FAIR      53  23  31 E8        30.31S
Sidney         CLEAR     54  28  37 CALM      30.34S
Syracuse       FAIR      55  32  41 S8        30.27S
$$

PAZ038>040-043-044-047-048-072-240600
...Northeast Pennsylvania...

CITY           SKY/WX    TMP DP  RH WIND       PRES   REMARKS
Hazleton       FAIR      46  28  49 SE3       30.38F
Scranton       FAIR      53  27  36 SE8       30.35F
$$
&&
KEY
WCI = Wind Chill Index
VSB = Visibility
HX  = Heat Index
$$




USA.gov is the U.S. government's official web portal to all federal, state and local government web resources and services.